[{"OBJECT_NAME":"CZ-4C R/B","OBJECT_ID":"2017-072C","EPOCH":"2026-09-12T06:51:33.479424","MEAN_MOTION":14.58837825,"ECCENTRICITY":0.01212645,"INCLINATION":98.5854,"RA_OF_ASC_NODE":6.1657,"ARG_OF_PERICENTER":243.3837,"MEAN_ANOMALY":115.4896,"EPHEMERIS_TYPE":0,"CLASSIFICATION_TYPE":"U","NORAD_CAT_ID":43012,"ELEMENT_SET_NO":999,"REV_AT_EPOCH":46933,"BSTAR":0.000059054949,"MEAN_MOTION_DOT":0.00000247,"MEAN_MOTION_DDOT":0},{"OBJECT_NAME":"NOAA 20 (JPSS-1)","OBJECT_ID":"2017-073A","EPOCH":"2026-09-12T06:18:46.389024","MEAN_MOTION":14.19525446,"ECCENTRICITY":0.00016029,"INCLINATION":98.7811,"RA_OF_ASC_NODE":193.965,"ARG_OF_PERICENTER":52.9174,"MEAN_ANOMALY":307.2148,"EPHEMERIS_TYPE":0,"CLASSIFICATION_TYPE":"U","NORAD_CAT_ID":43013,"ELEMENT_SET_NO":999,"REV_AT_EPOCH":45682,"BSTAR":0.000031246504,"MEAN_MOTION_DOT":2.2e-7,"MEAN_MOTION_DDOT":0},{"OBJECT_NAME":"MAKERSAT 0","OBJECT_ID":"2017-073D","EPOCH":"2026-09-11T15:11:22.520256","MEAN_MOTION":15.35343385,"ECCENTRICITY":0.00984371,"INCLINATION":97.4467,"RA_OF_ASC_NODE":137.942,"ARG_OF_PERICENTER":325.731,"MEAN_ANOMALY":33.7606,"EPHEMERIS_TYPE":0,"CLASSIFICATION_TYPE":"U","NORAD_CAT_ID":43016,"ELEMENT_SET_NO":999,"REV_AT_EPOCH":47971,"BSTAR":0.00052417302,"MEAN_MOTION_DOT":0.00021064,"MEAN_MOTION_DDOT":0},{"OBJECT_NAME":"RADFXSAT (FOX-1B)","OBJECT_ID":"2017-073E","EPOCH":"2026-09-12T02:16:50.814048","MEAN_MOTION":15.13867827,"ECCENTRICITY":0.01482672,"INCLINATION":97.4563,"RA_OF_ASC_NODE":120.5351,"ARG_OF_PERICENTER":28.8403,"MEAN_ANOMALY":332.0922,"EPHEMERIS_TYPE":0,"CLASSIFICATION_TYPE":"U","NORAD_CAT_ID":43017,"ELEMENT_SET_NO":999,"REV_AT_EPOCH":47853,"BSTAR":0.00027826066,"MEAN_MOTION_DOT":0.00006547,"MEAN_MOTION_DDOT":0},{"OBJECT_NAME":"JILIN-1 04","OBJECT_ID":"2017-074A","EPOCH":"2026-09-12T06:48:37.721088","MEAN_MOTION":15.44483176,"ECCENTRICITY":0.00026956,"INCLINATION":97.4919,"RA_OF_ASC_NODE":7.3769,"ARG_OF_PERICENTER":227.156,"MEAN_ANOMALY":132.9462,"EPHEMERIS_TYPE":0,"CLASSIFICATION_TYPE":"U","NORAD_CAT_ID":43022,"ELEMENT_SET_NO":999,"REV_AT_EPOCH":48770,"BSTAR":0.00022940304,"MEAN_MOTION_DOT":0.00010539,"MEAN_MOTION_DDOT":0},{"OBJECT_NAME":"JILIN-1 05","OBJECT_ID":"2017-074B","EPOCH":"2026-09-12T07:22:39.858528","MEAN_MOTION":15.3507508,"ECCENTRICITY":0.00035053,"INCLINATION":97.4912,"RA_OF_ASC_NODE":2.7361,"ARG_OF_PERICENTER":284.2938,"MEAN_ANOMALY":75.7916,"EPHEMERIS_TYPE":0,"CLASSIFICATION_TYPE":"U","NORAD_CAT_ID":43023,"ELEMENT_SET_NO":999,"REV_AT_EPOCH":48736,"BSTAR":0.00020222708,"MEAN_MOTION_DOT":0.00006801,"MEAN_MOTION_DDOT":0},{"OBJECT_NAME":"JILIN-1 06","OBJECT_ID":"2017-074C","EPOCH":"2026-09-12T07:09:31.205376","MEAN_MOTION":15.34574639,"ECCENTRICITY":0.00052733,"INCLINATION":97.4831,"RA_OF_ASC_NODE":359.6022,"ARG_OF_PERICENTER":295.2973,"MEAN_ANOMALY":64.7724,"EPHEMERIS_TYPE":0,"CLASSIFICATION_TYPE":"U","NORAD_CAT_ID":43024,"ELEMENT_SET_NO":999,"REV_AT_EPOCH":48719,"BSTAR":0.00014619125,"MEAN_MOTION_DOT":0.00004816,"MEAN_MOTION_DDOT":0},{"OBJECT_NAME":"IRIDIUM 116","OBJECT_ID":"2017-083C","EPOCH":"2026-09-12T03:31:03.127872","MEAN_MOTION":14.34217358,"ECCENTRICITY":0.00019146,"INCLINATION":86.3921,"RA_OF_ASC_NODE":285.6473,"ARG_OF_PERICENTER":87.3947,"MEAN_ANOMALY":272.7468,"EPHEMERIS_TYPE":0,"CLASSIFICATION_TYPE":"U","NORAD_CAT_ID":43072,"ELEMENT_SET_NO":999,"REV_AT_EPOCH":45663,"BSTAR":-0.000025022889,"MEAN_MOTION_DOT":-5e-7,"MEAN_MOTION_DDOT":0},{"OBJECT_NAME":"IRIDIUM 130","OBJECT_ID":"2017-083D","EPOCH":"2026-09-12T02:45:23.166144","MEAN_MOTION":14.34217948,"ECCENTRICITY":0.00022061,"INCLINATION":86.393,"RA_OF_ASC_NODE":285.9449,"ARG_OF_PERICENTER":86.9634,"MEAN_ANOMALY":273.1814,"EPHEMERIS_TYPE":0,"CLASSIFICATION_TYPE":"U","NORAD_CAT_ID":43073,"ELEMENT_SET_NO":999,"REV_AT_EPOCH":45657,"BSTAR":0.000011121961,"MEAN_MOTION_DOT":5.1e-7,"MEAN_MOTION_DDOT":0},{"OBJECT_NAME":"LKW-2","OBJECT_ID":"2017-084A","EPOCH":"2026-09-12T07:45:11.502720","MEAN_MOTION":15.27328252,"ECCENTRICITY":0.00007549,"INCLINATION":97.1121,"RA_OF_ASC_NODE":291.0745,"ARG_OF_PERICENTER":4.5761,"MEAN_ANOMALY":355.5485,"EPHEMERIS_TYPE":0,"CLASSIFICATION_TYPE":"U","NORAD_CAT_ID":43080,"ELEMENT_SET_NO":999,"REV_AT_EPOCH":48498,"BSTAR":0.0001839796,"MEAN_MOTION_DOT":0.00004854,"MEAN_MOTION_DDOT":0},{"OBJECT_NAME":"SUPERVIEW-1 03","OBJECT_ID":"2018-002A","EPOCH":"2026-09-12T06:23:03.099840","MEAN_MOTION":15.41789438,"ECCENTRICITY":0.00431112,"INCLINATION":97.3094,"RA_OF_ASC_NODE":340.1137,"ARG_OF_PERICENTER":224.7159,"MEAN_ANOMALY":135.061,"EPHEMERIS_TYPE":0,"CLASSIFICATION_TYPE":"U","NORAD_CAT_ID":43099,"ELEMENT_SET_NO":999,"REV_AT_EPOCH":48177,"BSTAR":0.00031217038,"MEAN_MOTION_DOT":0.00013581,"MEAN_MOTION_DDOT":0},{"OBJECT_NAME":"CARTOSAT-2F","OBJECT_ID":"2018-004A","EPOCH":"2026-09-12T06:45:34.634304","MEAN_MOTION":15.19262894,"ECCENTRICITY":0.0001024,"INCLINATION":97.4704,"RA_OF_ASC_NODE":314.0226,"ARG_OF_PERICENTER":24.2446,"MEAN_ANOMALY":335.8837,"EPHEMERIS_TYPE":0,"CLASSIFICATION_TYPE":"U","NORAD_CAT_ID":43111,"ELEMENT_SET_NO":999,"REV_AT_EPOCH":48055,"BSTAR":0.00014364964,"MEAN_MOTION_DOT":0.0000296,"MEAN_MOTION_DDOT":0},{"OBJECT_NAME":"LKW-3","OBJECT_ID":"2018-006A","EPOCH":"2026-09-12T06:48:41.623776","MEAN_MOTION":15.3673397,"ECCENTRICITY":0.00031814,"INCLINATION":97.6699,"RA_OF_ASC_NODE":59.4154,"ARG_OF_PERICENTER":21.0559,"MEAN_ANOMALY":339.0815,"EPHEMERIS_TYPE":0,"CLASSIFICATION_TYPE":"U","NORAD_CAT_ID":43146,"ELEMENT_SET_NO":999,"REV_AT_EPOCH":48208,"BSTAR":0.00021123796,"MEAN_MOTION_DOT":0.00007494,"MEAN_MOTION_DDOT":0},{"OBJECT_NAME":"ASNARO-2","OBJECT_ID":"2018-007A","EPOCH":"2026-09-12T06:35:58.754976","MEAN_MOTION":15.22406109,"ECCENTRICITY":0.00017377,"INCLINATION":97.3995,"RA_OF_ASC_NODE":260.851,"ARG_OF_PERICENTER":89.3116,"MEAN_ANOMALY":270.8319,"EPHEMERIS_TYPE":0,"CLASSIFICATION_TYPE":"U","NORAD_CAT_ID":43152,"ELEMENT_SET_NO":999,"REV_AT_EPOCH":48066,"BSTAR":0.0002190606,"MEAN_MOTION_DOT":0.00004992,"MEAN_MOTION_DDOT":0},{"OBJECT_NAME":"JILIN-1 07","OBJECT_ID":"2018-008E","EPOCH":"2026-09-12T07:04:33.347424","MEAN_MOTION":15.3596868,"ECCENTRICITY":0.00100975,"INCLINATION":97.1755,"RA_OF_ASC_NODE":272.9721,"ARG_OF_PERICENTER":102.1779,"MEAN_ANOMALY":258.0597,"EPHEMERIS_TYPE":0,"CLASSIFICATION_TYPE":"U","NORAD_CAT_ID":43159,"ELEMENT_SET_NO":999,"REV_AT_EPOCH":47836,"BSTAR":0.00017994839,"MEAN_MOTION_DOT":0.00006232,"MEAN_MOTION_DDOT":0},{"OBJECT_NAME":"JILIN-1 08","OBJECT_ID":"2018-008F","EPOCH":"2026-09-12T07:08:02.566752","MEAN_MOTION":15.34670257,"ECCENTRICITY":0.00080162,"INCLINATION":97.1796,"RA_OF_ASC_NODE":272.1817,"ARG_OF_PERICENTER":114.5019,"MEAN_ANOMALY":245.7062,"EPHEMERIS_TYPE":0,"CLASSIFICATION_TYPE":"U","NORAD_CAT_ID":43160,"ELEMENT_SET_NO":999,"REV_AT_EPOCH":47830,"BSTAR":0.00014509983,"MEAN_MOTION_DOT":0.00004802,"MEAN_MOTION_DDOT":0},{"OBJECT_NAME":"S-NET D","OBJECT_ID":"2018-014G","EPOCH":"2026-09-11T17:42:24.757056","MEAN_MOTION":15.17355487,"ECCENTRICITY":0.0009886,"INCLINATION":97.526,"RA_OF_ASC_NODE":158.9828,"ARG_OF_PERICENTER":80.4562,"MEAN_ANOMALY":279.7788,"EPHEMERIS_TYPE":0,"CLASSIFICATION_TYPE":"U","NORAD_CAT_ID":43186,"ELEMENT_SET_NO":999,"REV_AT_EPOCH":47188,"BSTAR":0.00018854,"MEAN_MOTION_DOT":0.00003699,"MEAN_MOTION_DDOT":0},{"OBJECT_NAME":"S-NET B","OBJECT_ID":"2018-014H","EPOCH":"2026-09-12T03:31:13.472544","MEAN_MOTION":15.17325725,"ECCENTRICITY":0.00104311,"INCLINATION":97.5264,"RA_OF_ASC_NODE":159.3779,"ARG_OF_PERICENTER":75.2351,"MEAN_ANOMALY":285.0038,"EPHEMERIS_TYPE":0,"CLASSIFICATION_TYPE":"U","NORAD_CAT_ID":43187,"ELEMENT_SET_NO":999,"REV_AT_EPOCH":47194,"BSTAR":0.00018983382,"MEAN_MOTION_DOT":0.00003722,"MEAN_MOTION_DDOT":0},{"OBJECT_NAME":"S-NET A","OBJECT_ID":"2018-014J","EPOCH":"2026-09-11T14:30:11.496672","MEAN_MOTION":15.17363167,"ECCENTRICITY":0.00103565,"INCLINATION":97.5276,"RA_OF_ASC_NODE":159.0647,"ARG_OF_PERICENTER":77.4729,"MEAN_ANOMALY":282.7662,"EPHEMERIS_TYPE":0,"CLASSIFICATION_TYPE":"U","NORAD_CAT_ID":43188,"ELEMENT_SET_NO":999,"REV_AT_EPOCH":47186,"BSTAR":0.00019155391,"MEAN_MOTION_DOT":0.00003761,"MEAN_MOTION_DDOT":0},{"OBJECT_NAME":"S-NET C","OBJECT_ID":"2018-014K","EPOCH":"2026-09-11T16:32:49.007904","MEAN_MOTION":15.17312752,"ECCENTRICITY":0.00116149,"INCLINATION":97.5291,"RA_OF_ASC_NODE":159.237,"ARG_OF_PERICENTER":70.5531,"MEAN_ANOMALY":289.6956,"EPHEMERIS_TYPE":0,"CLASSIFICATION_TYPE":"U","NORAD_CAT_ID":43189,"ELEMENT_SET_NO":999,"REV_AT_EPOCH":47042,"BSTAR":0.00019784511,"MEAN_MOTION_DOT":0.00003882,"MEAN_MOTION_DDOT":0},{"OBJECT_NAME":"PAZ","OBJECT_ID":"2018-020A","EPOCH":"2026-09-12T07:35:58.229952","MEAN_MOTION":15.19146968,"ECCENTRICITY":0.00016852,"INCLINATION":97.4464,"RA_OF_ASC_NODE":261.4704,"ARG_OF_PERICENTER":87.0212,"MEAN_ANOMALY":273.1216,"EPHEMERIS_TYPE":0,"CLASSIFICATION_TYPE":"U","NORAD_CAT_ID":43215,"ELEMENT_SET_NO":999,"REV_AT_EPOCH":47423,"BSTAR":0.000061088431,"MEAN_MOTION_DOT":0.00001216,"MEAN_MOTION_DDOT":0},{"OBJECT_NAME":"GOES 17","OBJECT_ID":"2018-022A","EPOCH":"2026-09-12T06:38:08.588256","MEAN_MOTION":1.00272393,"ECCENTRICITY":0.00008306,"INCLINATION":1.1557,"RA_OF_ASC_NODE":84.2448,"ARG_OF_PERICENTER":130.2329,"MEAN_ANOMALY":146.8528,"EPHEMERIS_TYPE":0,"CLASSIFICATION_TYPE":"U","NORAD_CAT_ID":43226,"ELEMENT_SET_NO":999,"REV_AT_EPOCH":3129,"BSTAR":0,"MEAN_MOTION_DOT":-0.00000197,"MEAN_MOTION_DDOT":0},{"OBJECT_NAME":"LKW-4","OBJECT_ID":"2018-025A","EPOCH":"2026-09-12T05:53:26.245824","MEAN_MOTION":15.6974571,"ECCENTRICITY":0.0002024,"INCLINATION":97.6367,"RA_OF_ASC_NODE":73.465,"ARG_OF_PERICENTER":347.5149,"MEAN_ANOMALY":12.6062,"EPHEMERIS_TYPE":0,"CLASSIFICATION_TYPE":"U","NORAD_CAT_ID":43236,"ELEMENT_SET_NO":999,"REV_AT_EPOCH":47365,"BSTAR":0.00039226614,"MEAN_MOTION_DOT":0.00046632,"MEAN_MOTION_DDOT":0}]